SCP
0 0 0 0 0 0 0 0 0 0 0 0 0 0 0 0 0 0 0 0 0 0
0 0 0 0 0 0 0 0 0 0 0 0 0 0 0 0 0 0 0 0 0 0
0 0 0 0 0 0 0 0 0 0 0 0 0 0 0 0 0 0 0 0 0 0
0 0 0 0 0 0 0 0 0 0 0 0 0 0 0 0 0 0 0 0 0 0
0 0 0 0 0 0 0 0 0 0 0 0 0 0 0 0 0 0 0 0 0 0
0 0 0 0 0 0 0 0 0 0 0 0 0 0 0 0 0 0 0 0 0 0
0 0 0 0 0 0 0 0 0 0 0 0 0 0 0 0 0 0 0 0 0 0
0 0 0 0 0 0 0 0 0 0 0 0 0 0 0 0 0 0 0 0 0 0
0 0 0 0 0 0 0 0 0 0 0 0 0 0 0 0 0 0 0 0 0 0
-0 0 0 0 0 0 0 0 0 0 0 0 0 0 0 0 0 0 0 0 0 0
0 0 0 0 0 0 0 0 0 0 0 0 0 0 0 0 0 0 0 0 0 0
-0 0 0 0 0 0 0 0 0 0 0 0 0 0 0 0 0 0 0 0 0 0
0 0 0 0 0 0 0 0 0 0 0 0 0 0 0 0 0 0 0 0 0 0
0 0 0 0 0 0 0 0 0 0 0 0 0 0 0 0 0 0 0 0 0 0
Wind_Speed_500mb
68 70 64 66 61 59 48 40 37 34 27 14 11 22 16 15 13 10 10 12 13 13
72 73 70 69 65 58 47 47 43 36 21 15 28 19 19 16 14 13 13 13 15 18
76 76 74 75 67 59 52 44 38 26 21 22 14 23 20 19 17 16 16 18 20 21
82 77 74 65 59 52 48 38 23 21 19 21 27 25 24 22 21 21 21 23 25 26
78 76 63 62 54 45 40 24 13 25 26 26 27 27 26 25 25 26 27 29 31 31
53 51 39 37 45 32 19 22 26 24 26 24 27 28 29 30 31 31 34 36 37 36
47 50 55 42 30 24 21 24 20 23 26 28 31 31 31 35 37 38 39 42 43 44
47 39 30 23 21 20 21 19 22 26 28 30 33 33 36 40 41 44 46 49 50 50
35 23 15 14 16 18 17 19 24 27 30 34 36 36 40 44 48 51 52 54 53 55
21 9 6 10 16 14 17 24 28 31 34 36 39 41 45 50 53 56 56 58 58 60
12 16 13 12 16 21 25 30 34 35 37 41 43 47 50 54 60 61 60 62 63 66
19 18 18 19 22 28 34 37 39 42 46 48 46 51 52 56 64 68 67 66 66 70
12 15 18 24 30 35 41 43 45 46 46 50 52 51 56 60 68 74 74 73 71 71
15 19 24 29 33 38 44 45 45 49 50 54 56 54 55 60 67 72 78 81 82 80
Wind_Direction_500mb
218 219 226 225 225 220 214 202 187 181 179 194 276 294 253 228 244 264 286 294 291 286
219 220 223 224 217 214 193 185 183 177 193 241 279 237 219 230 247 271 285 296 293 288
219 219 223 221 207 197 183 180 181 190 234 274 239 223 227 238 254 270 286 289 286 289
217 217 217 214 202 189 169 175 203 237 241 229 220 223 234 244 259 270 278 282 285 284
210 205 197 185 172 169 177 197 203 229 229 222 223 233 240 251 262 270 275 278 279 282
189 177 166 151 157 183 187 192 225 229 230 230 237 243 250 258 265 270 273 276 280 283
143 134 151 165 170 199 212 217 222 233 236 241 247 252 260 267 269 271 274 278 282 283
135 150 165 168 188 221 215 220 231 240 247 254 259 264 267 269 273 275 277 277 280 283
153 166 183 197 216 210 233 246 250 256 260 263 268 271 274 277 278 278 279 281 283 283
172 229 249 215 205 234 263 266 268 272 275 277 277 278 279 280 281 281 282 283 283 283
277 288 273 241 235 258 271 276 277 276 278 282 285 283 283 283 282 282 283 283 285 286
267 255 245 240 256 268 275 283 287 281 279 281 284 284 284 282 282 283 284 286 286 287
294 283 268 269 275 284 287 287 283 285 287 285 285 284 286 286 286 287 290 288 291 292
288 278 279 281 284 287 290 290 288 287 288 288 290 290 288 286 287 292 294 293 293 294
Wind_Speed_850mb
68 70 64 66 61 59 48 40 37 34 27 14 11 22 16 15 13 10 10 12 13 13
72 73 70 69 65 58 47 47 43 36 21 15 28 19 19 16 14 13 13 13 15 18
76 76 74 75 67 59 52 44 38 26 21 22 14 23 20 19 17 16 16 18 20 21
82 77 74 65 59 52 48 38 23 21 19 21 27 25 24 22 21 21 21 23 25 26
78 76 63 62 54 45 40 24 13 25 26 26 27 27 26 25 25 26 27 29 31 31
53 51 39 37 45 32 19 22 26 24 26 24 27 28 29 30 31 31 34 36 37 36
47 50 55 42 30 24 21 24 20 23 26 28 31 31 31 35 37 38 39 42 43 44
47 39 30 23 21 20 21 19 22 26 28 30 33 33 36 40 41 44 46 49 50 50
35 23 15 14 16 18 17 19 24 27 30 34 36 36 40 44 48 51 52 54 53 55
21 9 6 10 16 14 17 24 28 31 34 36 39 41 45 50 53 56 56 58 58 60
12 16 13 12 16 21 25 30 34 35 37 41 43 47 50 54 60 61 60 62 63 66
19 18 18 19 22 28 34 37 39 42 46 48 46 51 52 56 64 68 67 66 66 70
12 15 18 24 30 35 41 43 45 46 46 50 52 51 56 60 68 74 74 73 71 71
15 19 24 29 33 38 44 45 45 49 50 54 56 54 55 60 67 72 78 81 82 80
Wind_Direction_850mb
218 219 226 225 225 220 214 202 187 181 179 194 276 294 253 228 244 264 286 294 291 286
219 220 223 224 217 214 193 185 183 177 193 241 279 237 219 230 247 271 285 296 293 288
219 219 223 221 207 197 183 180 181 190 234 274 239 223 227 238 254 270 286 289 286 289
217 217 217 214 202 189 169 175 203 237 241 229 220 223 234 244 259 270 278 282 285 284
210 205 197 185 172 169 177 197 203 229 229 222 223 233 240 251 262 270 275 278 279 282
189 177 166 151 157 183 187 192 225 229 230 230 237 243 250 258 265 270 273 276 280 283
143 134 151 165 170 199 212 217 222 233 236 241 247 252 260 267 269 271 274 278 282 283
135 150 165 168 188 221 215 220 231 240 247 254 259 264 267 269 273 275 277 277 280 283
153 166 183 197 216 210 233 246 250 256 260 263 268 271 274 277 278 278 279 281 283 283
172 229 249 215 205 234 263 266 268 272 275 277 277 278 279 280 281 281 282 283 283 283
277 288 273 241 235 258 271 276 277 276 278 282 285 283 283 283 282 282 283 283 285 286
267 255 245 240 256 268 275 283 287 281 279 281 284 284 284 282 282 283 284 286 286 287
294 283 268 269 275 284 287 287 283 285 287 285 285 284 286 286 286 287 290 288 291 292
288 278 279 281 284 287 290 290 288 287 288 288 290 290 288 286 287 292 294 293 293 294